Location: Jaite
(41.2884°N, 81.5737°W)
Time: 16:27:51
(UTC+00:00)

Atlas Centaur 2 - Pass Details

Date: 18 January 2020
Orbit: 459 x 1310 km, 30.4° (Epoch: 19 February)

Event Time Altitude Azimuth Distance (km) Brightness Sun altitude
Rises 00:33:49 0° 203° (SSW) 3,261 5.7 -24.0°
Reaches altitude 10° 00:37:30 10° 177° (S) 2,529 4.7 -24.7°
Enters shadow 00:39:42 13° 156° (SSE) 2,399 4.4 -25.1°
